TUBIN

decayed
NORAD ID: 48900 Int'l Des: 2021-059 Owner: TUB Country: D
LEOCIRCULARRETROGRADE

Über TUBIN

Beschreibung wird geladen...

Höhenverlauf

Altitude vs Time

uPlot chart will show altitude changes over time

Zweizeiliger Elementsatz

1 48900U 21059X 25349.78845228 .07315651 27141-5 56139-3 0 9990
2 48900 97.6553 178.8839 0007270 265.1302 94.9166 16.40417761249824
Epoch: 15. Dez. 2025 • Age: 1860 hours

Aktueller Status

Position data unavailable
Startdatum 30. Juni 2021
Alter 4.6 years
Verglühungsdatum 16. Dez. 2025
Typ other

Technische Details

Klassifizierung Payload
Masse 17.00 kg
Trockenmasse 17.00 kg
Gesamtmasse 17.00 kg
Länge 0.30 m
Durchmesser 0.50 m
Spannweite 0.50 m
Form Oct cyl
Hersteller TUB
Bus-Typ TUBix20
Phasenstatus Reentered
Besitzer/Staat TUB/D

Große Konstellationen

Loading constellations...